User: anonymous   Login
Location: Unspecified
(0.0000°N, 0.0000°E)
Time: 01:02:07
(UTC+00:00)
Language:

TIANHUI 2-01B - Orbit

View from above orbital plane
View from above orbital plane
View from above satellite
View from above satellite

Ground track
Ground track

The orbit is defined by the following mean orbital elements,

1 44209U          26145.39911571 +.00000000 +00000-0 +81064-4 0 00009
2 44209  97.4800 149.6364 0001969  98.3523 261.7933 15.16749232    08
Epoch (UTC): 25 May 2026 09:34:43
Eccentricity: 0.0001969
inclination: 97.4800°
perigee height: 514 km
apogee height: 517 km
right ascension of ascending node: 149.6364°
argument of perigee: 98.3523°
revolutions per day: 15.16749232
mean anomaly at epoch: 261.7933°

The dashed part of the orbit path shows where the satellite is in the earth's shadow,  

DLR